Regional Weather Roundup
Issued by NWS Upton, NY

Current Version | Previous Version | Text Only | Print | Product List | Glossary On
Versions: 1 2 3 4 5 6 7 8 9 10 11 12 13 14 15 16 17 18 19 20 21 22 23 24 25 26 27 28 29 30 31 32 33 34 35 36 37 38 39 40 41 42 43 44 45 46 47 48 49 50
727 ASUS41 KOKX 290708 RWROKX REGIONAL WEATHER ROUNDUP NATIONAL WEATHER SERVICE NEW YORK NY 300 AM EDT WED MAR 29 2017 NOTE: "FAIR" INDICATES FEW OR NO CLOUDS BELOW 12,000 FEET WITH NO SIGNIFICANT WEATHER AND/OR OBSTRUCTIONS TO VISIBILITY. NYZ071-072-176-178-NJZ106-104-290800- NEW YORK CITY METRO AREA CITY SKY/WX TMP DP RH WIND PRES REMARKS Central Park CLOUDY 46 43 89 VRB3 29.98R Wall St Helipt CLOUDY 46 43 89 CALM 29.97R LaGuardia APRT CLOUDY 48 43 82 N10 29.95R Kennedy INTL CLOUDY 46 43 89 N7 29.96R Breezy Point N/A 43 N/A N/A NW3 N/A Newark/Liberty CLOUDY 46 44 93 N5 29.95R Teterboro CLOUDY 46 44 93 N5 29.95R $$ NYZ177-179-078>081-290800- LONG ISLAND NEW YORK CITY SKY/WX TMP DP RH WIND PRES REMARKS Jones Beach N/A 43 N/A N/A N8 N/A Matinecock PT N/A 41 N/A N/A N2 N/A Farmingdale CLOUDY 44 42 93 N8 29.93R MacArthur/ISP CLOUDY 42 42 100 N8 29.92R Shirley CLOUDY 42 42 100 N9 29.93R Westhampton CLOUDY 42 40 92 N7 29.93R East Hampton CLOUDY 39 38 94 N9 29.91R WCI 33 Montauk N/A 41 39 93 N7 29.91R $$ NYZ052-065-067-290800- HUDSON VALLEY CITY SKY/WX TMP DP RH WIND PRES REMARKS White Plains MOCLDY 45 42 89 N12 29.93R Newburgh NOT AVBL Montgomery CLOUDY 44 40 85 NE12 29.97R Poughkeepsie CLOUDY 41 38 89 N12 29.97R Albany CLOUDY 40 36 86 N8 30.04R WCI 34 $$ NJZ001-105-106-008-010-013-015-019>022-104-290800- NEW JERSEY CITY SKY/WX TMP DP RH WIND PRES REMARKS Newark/Liberty CLOUDY 46 44 93 N5 29.95R Teterboro CLOUDY 46 44 93 N5 29.95R Caldwell CLOUDY 44 43 96 CALM 29.96R FOG Somerville CLOUDY 47 44 90 N7 29.94R Linden CLOUDY 45 44 95 CALM 29.96R FOG Sussex CLOUDY 48 42 80 VRB5 29.97R Andover N/A 47 42 83 N3 29.97R Trenton CLOUDY 45 45 100 NW6 29.95R Millville CLEAR 44 44 100 N3 29.95R Atlantic City CLOUDY 46 43 89 N6 29.95R Wrightstown MOCLDY 43 42 96 W3 29.93R Toms River CLOUDY 44 43 96 NW3 29.96R Belmar CLOUDY 43 43 100 W6 29.95R FOG $$ PAZ047>061-062-071-290800- EASTERN PENNSYLVANIA CITY SKY/WX TMP DP RH WIND PRES REMARKS Philadelphia CLOUDY 48 46 93 N6 29.96S Allentown MOCLDY 48 40 73 NW12 29.99R Scranton CLOUDY 43 39 86 N16 30.04R $$ CTZ002-004>006-009-010-012-RIZ004-006-007-MAZ004-011-015-290800- SOUTHERN NEW ENGLAND IN CT CITY SKY/WX TMP DP RH WIND PRES REMARKS Bradley INTL CLOUDY 40 40 100 N3 29.94S Hartford CLOUDY 41 39 93 N6 29.95R Danbury CLOUDY 44 42 93 CALM 29.95R Wtrbury/Oxford CLOUDY 41 37 87 N3 29.94R Bridgeport CLOUDY 45 41 86 CALM 29.94R Meriden CLOUDY 42 39 89 N8 29.94R New Haven CLOUDY 42 40 92 N8 29.93R Chester NOT AVBL Groton CLOUDY 40 38 93 N7 29.90S Wilimantic CLOUDY 41 38 89 N6 29.93R IN RI CITY SKY/WX TMP DP RH WIND PRES REMARKS Providence LGT RAIN 40 37 89 N8 29.92S WCI 34 Block Island LGT RAIN 39 38 96 N12G20 29.88F WCI 32 Westerly LGT RAIN 41 39 93 N8 29.90S IN MA CITY SKY/WX TMP DP RH WIND PRES REMARKS Boston LGT RAIN 38 37 97 N9 29.94S WCI 31 Worcester FOG 34 33 96 NE9 29.91R VSB 1/4 WCI 27 Westfield CLOUDY 39 39 100 N7 29.94R WCI 34 Provincetown LGT RAIN 39 39 100 NE12 29.91F WCI 32 Nantucket LGT RAIN 41 39 93 NE15 29.84F FOG $$ ANZ330-335-338-340-345-350-353-355-290800- COASTAL MARINE OBSERVATIONS STATION/POSITION TIME SKY/WX TEMP WIND PRES VSBY WAVE AIR SEA DIR/SP/G HT/PER (UTC) (F) (DEG/KT/KT) (MB) (MI) (FT/S) NY HARB ENTRANCE 0550 43 42 320/ 8/ 8 1013.6 4/10 20 S FIRE ISLAND 0650 42 42 340/ 8/ 10 1012.9 4/ 5 GREAT SOUTH BAY NOT AVBL 23 SSW MONTAUK P 0550 40 42 1011.8 5/ 5 15 E BARNEGAT LI 0630 44 N/A 4/10 HUDSON CANYON 0650 42 44 10/ 17/ 21 1011.6 4/10 KINGS POINT 0648 42 39 1014.0 EXECUTION ROCKS NOT AVBL CENTRAL LI SOUND 0630 40 340/ 4/ 6 N/A 0 EASTERN LI SOUND NOT AVBL ROBBINS REEF 0648 45 340/ 6/ 7 1014.5 $$ >>>>>>>>>>>>>>>>>>>>>>>>>>>> KEY <<<<<<<<<<<<<<<<<<<<<<<<<<< > < > SKY/WX - Sky Condition/Present Weather < > TMP - Temperature in Fahrenheit < > DP - Dew Point in Fahrenheit < > RH - Relative Humidity in Percent < > WIND - Direction (from) and Speed in MPH < > PRES - Mean Sea Level Pressure (inches of Hg) < > WCI - Wind Chill Index < > VSB - VISIBILITY IN MILES < > HX - HEAT INDEX < > TC - TEMPERATURE IN CELSIUS < > VRB - VARIABLE WIND DIRECTION < > < >>>>>>>>>>>>>>>>>>>>>>>>>>>> KEY <<<<<<<<<<<<<<<<<<<<<<<<<<<

USA.gov is the U.S. government's official web portal to all federal, state and local government web resources and services.